Probability
90 81 65 45 6 0 0 0 0 0 0 3 3 3 3 0 0 0 6 13 16 26 42 52 61 55 55 55 52 55 55 55 52 55 42 39 32 45 45 52 52 58 52 52 48 42 42 45 55
74 77 68 10 0 0 0 0 0 0 0 3 3 3 3 6 6 16 19 19 26 32 35 42 52 48 48 48 48 45 45 48 42 32 26 23 23 29 35 32 32 35 39 39 39 45 39 35 42
77 90 45 3 0 0 0 0 0 0 3 0 0 0 0 6 10 19 16 19 23 29 39 48 52 45 45 45 39 39 32 26 23 16 19 19 16 19 19 19 23 19 26 32 29 32 32 35 32
71 39 6 3 0 0 0 0 0 0 0 0 0 0 3 0 13 23 19 19 19 26 39 42 48 45 42 42 35 32 29 26 19 19 19 19 13 16 13 13 10 16 13 16 19 26 29 26 29
45 23 0 0 0 0 0 0 0 0 0 0 0 0 0 13 16 26 16 19 19 26 32 39 42 39 32 29 26 29 23 23 16 16 19 13 13 10 6 6 6 6 6 10 10 13 16 26 29
16 0 0 0 0 0 0 0 0 0 0 0 0 0 3 13 29 23 19 19 23 23 26 29 39 35 29 29 26 26 23 16 16 19 16 16 16 10 10 10 10 6 6 6 10 10 10 10 10
10 3 0 0 0 0 0 0 0 0 0 0 3 3 3 10 13 23 19 16 16 23 26 26 29 26 32 29 29 26 26 19 19 13 13 13 10 6 10 10 13 10 6 6 10 6 13 13 16
16 3 0 0 0 0 0 3 3 0 0 3 0 0 6 3 6 13 16 16 16 13 19 23 23 23 26 23 29 29 26 23 19 13 10 10 10 6 6 6 10 10 10 6 6 6 13 16 19
13 3 0 0 0 0 0 3 6 3 3 3 3 0 3 3 6 13 13 6 10 10 13 13 16 16 16 16 23 29 26 19 13 10 10 0 0 0 0 0 6 3 6 6 10 10 10 13 10
6 0 0 0 0 0 0 3 3 3 0 3 0 6 6 3 6 10 10 6 10 10 10 10 10 10 10 13 16 10 6 3 3 3 0 0 0 0 0 0 10 10 10 10 10 6 6 3 0
6 3 0 0 0 0 0 3 3 3 0 0 3 13 6 6 6 10 10 6 10 10 10 6 6 6 6 3 10 6 3 3 0 0 0 0 0 0 0 0 3 3 3 0 0 0 3 0 0
3 0 0 0 0 0 0 0 0 0 0 3 3 10 6 0 0 6 6 6 10 10 6 6 6 6 6 6 6 10 0 0 0 0 0 0 0 0 0 0 0 0 0 0 0 0 0 0 0
0 0 0 0 0 0 0 3 0 0 3 3 6 0 3 0 0 3 6 6 3 6 6 6 6 6 6 6 10 3 0 0 0 0 0 0 0 0 0 0 0 0 0 0 0 0 0 0 0
0 0 0 0 0 0 0 0 0 6 6 10 6 3 0 0 0 0 3 6 6 6 6 3 6 3 3 6 3 0 0 0 0 0 0 0 0 0 0 0 0 0 0 0 0 0 0 0 0
3 0 0 0 0 0 0 0 0 6 6 10 6 0 0 0 3 0 3 3 3 6 0 3 3 3 3 0 0 0 0 0 0 0 0 0 0 0 0 0 0 0 0 0 0 0 0 0 0
0 0 0 0 0 0 0 0 0 6 6 6 0 0 0 3 3 3 3 3 3 3 0 0 3 0 0 0 0 0 0 0 0 0 0 0 0 0 0 0 0 0 0 0 0 0 0 0 0
0 0 0 0 0 0 0 0 0 3 6 6 6 3 3 3 3 3 3 3 3 3 0 3 6 3 0 0 0 0 0 0 0 0 0 0 0 0 0 0 0 0 0 0 0 0 0 0 0
0 0 0 0 0 0 0 0 3 3 10 6 6 3 3 6 3 3 0 0 3 3 3 3 3 0 0 0 0 0 0 0 0 0 0 0 0 0 0 0 0 0 0 0 0 0 0 0 0
0 0 0 0 0 0 0 0 0 3 6 6 6 6 6 3 3 0 0 0 3 3 3 3 0 0 0 0 0 0 0 0 0 0 0 0 0 0 0 0 0 0 0 0 0 0 0 0 0
0 0 0 0 0 0 0 0 0 0 3 6 6 6 6 3 0 3 3 3 3 3 3 3 0 0 0 0 0 0 0 0 0 0 0 0 0 0 0 0 0 0 0 0 0 0 0 0 0
0 0 0 0 0 0 0 0 0 0 3 3 6 6 6 3 0 3 3 3 3 3 3 3 0 0 0 0 0 0 0 0 0 0 0 0 0 0 0 0 0 0 0 0 0 0 0 0 0
0 0 0 0 0 0 0 0 0 0 0 0 0 0 0 0 0 3 3 3 3 3 3 0 0 0 0 0 0 0 0 0 0 0 0 0 0 0 0 0 0 0 0 0 0 0 0 0 0
0 0 0 0 0 0 0 0 0 0 0 0 0 0 0 3 3 3 3 3 3 3 0 0 0 0 0 0 0 0 0 0 0 0 0 0 0 0 0 0 0 0 0 0 0 0 0 0 0
0 0 0 0 0 0 0 0 0 0 0 0 3 3 3 3 3 3 3 3 3 0 0 0 0 0 0 0 0 0 0 0 0 0 0 0 0 0 0 0 0 0 0 0 0 0 0 0 0
0 0 0 0 0 0 0 0 0 0 0 0 0 3 3 0 3 0 0 0 0 0 0 0 0 0 0 0 0 0 0 0 0 0 0 0 0 0 0 0 0 0 0 0 0 0 0 0 0
0 0 0 0 0 0 0 0 0 0 0 0 0 0 0 0 0 0 0 0 0 0 0 0 0 0 0 0 0 0 0 0 0 0 0 0 0 0 0 0 0 0 0 0 0 0 0 0 0
0 0 0 0 0 0 0 0 0 0 0 0 0 0 0 0 0 0 0 0 0 0 0 0 0 0 0 0 0 0 0 0 0 0 0 0 0 0 0 0 0 0 0 0 0 0 0 0 0
0 0 0 0 0 0 0 0 0 0 0 0 0 0 0 0 0 0 0 0 0 0 0 0 0 0 0 0 0 0 0 0 0 0 0 0 0 0 0 0 0 0 0 0 0 0 0 0 0
0 0 0 0 0 0 0 0 0 0 0 0 0 0 0 0 0 0 0 0 0 0 0 0 0 0 0 0 0 0 0 0 0 0 0 0 0 0 0 0 0 0 0 0 0 0 0 0 0
0 0 0 0 0 0 0 0 0 0 0 0 0 0 0 0 0 0 0 0 0 0 0 0 0 0 0 0 0 0 0 0 0 0 0 0 0 0 0 0 0 0 0 0 0 0 0 0 0
Height
5871 5871 5871 5872 5872 5871 5870 5870 5870 5870 5870 5871 5871 5871 5872 5873 5875 5877 5876 5875 5875 5876 5876 5877 5877 5878 5878 5878 5879 5879 5879 5879 5879 5879 5879 5878 5878 5877 5877 5876 5875 5875 5874 5873 5873 5872 5872 5871 5871
5869 5869 5870 5870 5870 5869 5869 5869 5869 5869 5870 5870 5870 5871 5871 5872 5873 5874 5874 5874 5875 5875 5876 5877 5877 5877 5878 5878 5878 5879 5879 5879 5879 5878 5878 5878 5877 5876 5876 5875 5874 5873 5873 5872 5871 5871 5870 5870 5869
5866 5867 5868 5868 5868 5868 5868 5868 5867 5868 5868 5869 5870 5871 5871 5872 5872 5873 5873 5874 5874 5875 5876 5876 5877 5877 5877 5878 5878 5878 5878 5878 5878 5878 5877 5877 5876 5875 5874 5874 5873 5872 5871 5870 5870 5869 5868 5868 5867
5864 5865 5866 5867 5866 5866 5866 5867 5867 5867 5867 5868 5869 5870 5871 5872 5872 5872 5873 5873 5874 5875 5875 5876 5876 5877 5877 5877 5877 5878 5878 5878 5877 5877 5876 5876 5875 5874 5873 5872 5872 5871 5870 5869 5868 5867 5866 5866 5865
5862 5863 5864 5864 5863 5865 5865 5865 5866 5866 5867 5867 5868 5870 5870 5871 5871 5871 5872 5873 5874 5874 5875 5876 5876 5877 5877 5877 5877 5877 5877 5877 5877 5876 5875 5875 5874 5873 5872 5871 5870 5869 5868 5867 5866 5865 5864 5864 5863
5860 5860 5862 5861 5862 5863 5863 5863 5864 5865 5866 5867 5868 5869 5869 5870 5870 5870 5871 5872 5873 5874 5875 5875 5876 5876 5877 5877 5877 5877 5877 5876 5876 5875 5875 5874 5873 5872 5871 5870 5869 5868 5866 5865 5864 5863 5863 5862 5861
5857 5858 5859 5859 5860 5861 5861 5861 5863 5864 5865 5866 5866 5868 5869 5870 5870 5870 5871 5872 5872 5873 5874 5875 5876 5876 5876 5876 5876 5876 5876 5875 5875 5874 5874 5873 5872 5871 5869 5868 5867 5866 5865 5863 5862 5861 5860 5859 5859
5854 5856 5856 5856 5857 5858 5859 5859 5861 5861 5863 5865 5866 5867 5868 5869 5870 5870 5871 5871 5872 5873 5874 5874 5875 5875 5876 5876 5875 5875 5875 5874 5874 5873 5872 5871 5870 5869 5868 5867 5865 5864 5863 5862 5860 5859 5858 5857 5856
5851 5853 5853 5854 5855 5856 5856 5858 5859 5861 5861 5863 5865 5866 5867 5868 5869 5870 5871 5872 5872 5873 5874 5874 5875 5875 5875 5875 5875 5874 5874 5873 5873 5872 5871 5870 5869 5868 5866 5865 5864 5862 5861 5859 5858 5857 5856 5855 5854
5848 5849 5850 5852 5853 5854 5855 5856 5858 5859 5861 5862 5863 5865 5866 5867 5868 5869 5871 5871 5872 5873 5874 5874 5874 5874 5874 5874 5874 5873 5873 5872 5872 5871 5870 5869 5867 5866 5865 5863 5862 5860 5859 5857 5856 5854 5853 5852 5851
5845 5847 5848 5849 5850 5852 5852 5854 5855 5857 5859 5861 5862 5863 5865 5866 5868 5869 5870 5871 5872 5873 5874 5874 5874 5874 5874 5874 5873 5873 5872 5871 5871 5870 5869 5867 5866 5865 5863 5862 5860 5859 5857 5855 5854 5852 5850 5849 5848
5843 5845 5846 5847 5849 5850 5851 5853 5854 5855 5857 5859 5860 5862 5864 5865 5867 5868 5869 5870 5871 5872 5873 5873 5873 5873 5873 5873 5872 5872 5871 5870 5869 5868 5867 5866 5865 5863 5861 5860 5858 5856 5855 5853 5851 5849 5848 5847 5846
5841 5843 5844 5846 5846 5848 5850 5851 5852 5854 5856 5858 5859 5861 5863 5864 5865 5867 5868 5869 5870 5871 5872 5872 5872 5872 5872 5872 5871 5871 5870 5869 5868 5867 5866 5864 5863 5861 5859 5858 5856 5854 5852 5850 5848 5847 5845 5844 5843
5839 5840 5842 5844 5845 5847 5848 5850 5852 5853 5855 5857 5858 5860 5862 5863 5865 5866 5867 5868 5869 5870 5870 5871 5871 5871 5871 5871 5870 5869 5868 5868 5867 5865 5864 5862 5861 5859 5857 5855 5853 5852 5850 5848 5846 5844 5842 5841 5840
5837 5839 5841 5842 5844 5846 5847 5849 5851 5852 5854 5856 5857 5859 5861 5862 5863 5865 5866 5867 5867 5868 5869 5869 5869 5869 5869 5869 5869 5868 5867 5866 5865 5864 5862 5860 5859 5857 5855 5853 5851 5849 5847 5845 5843 5841 5839 5838 5836
5836 5838 5839 5841 5842 5845 5848 5849 5849 5851 5853 5854 5856 5858 5859 5861 5862 5863 5864 5865 5866 5867 5867 5868 5868 5868 5868 5867 5867 5866 5865 5864 5863 5862 5860 5859 5857 5855 5853 5851 5849 5846 5844 5842 5840 5838 5836 5835 5833
5835 5837 5838 5841 5842 5843 5845 5847 5848 5849 5851 5853 5855 5856 5858 5859 5861 5862 5863 5864 5865 5865 5866 5866 5866 5866 5866 5865 5865 5864 5864 5863 5861 5860 5858 5857 5855 5853 5851 5849 5846 5844 5842 5839 5837 5835 5833 5831 5830
5834 5836 5838 5839 5841 5842 5844 5845 5847 5848 5850 5852 5853 5855 5856 5858 5859 5860 5862 5862 5863 5863 5864 5864 5864 5864 5864 5864 5864 5863 5862 5861 5859 5858 5856 5855 5853 5851 5848 5846 5844 5841 5839 5836 5834 5832 5830 5828 5827
5834 5835 5837 5838 5839 5841 5842 5844 5846 5847 5849 5850 5852 5853 5855 5856 5857 5858 5859 5860 5861 5862 5862 5863 5863 5863 5863 5863 5862 5861 5860 5859 5858 5856 5854 5853 5851 5848 5846 5844 5841 5839 5836 5834 5831 5829 5827 5825 5823
5833 5834 5836 5837 5838 5840 5841 5842 5844 5845 5847 5849 5850 5852 5854 5855 5856 5857 5858 5859 5860 5860 5861 5861 5862 5862 5862 5861 5861 5860 5859 5857 5856 5854 5853 5851 5849 5846 5844 5841 5839 5836 5834 5831 5828 5826 5824 5822 5820
5833 5834 5836 5837 5838 5839 5841 5842 5843 5845 5846 5848 5849 5851 5853 5854 5855 5856 5857 5858 5859 5859 5860 5860 5860 5860 5860 5860 5859 5858 5857 5856 5855 5853 5851 5849 5846 5844 5842 5839 5836 5834 5831 5829 5826 5823 5821 5819 5818
5833 5834 5835 5836 5837 5839 5840 5841 5843 5844 5845 5847 5848 5850 5851 5853 5854 5855 5856 5857 5857 5858 5858 5859 5859 5859 5859 5858 5857 5856 5855 5854 5852 5851 5849 5847 5844 5842 5839 5837 5834 5831 5829 5826 5824 5821 5819 5817 5816
5832 5833 5834 5836 5837 5838 5839 5841 5843 5843 5845 5846 5848 5849 5850 5851 5852 5853 5854 5855 5856 5857 5857 5857 5858 5857 5857 5856 5855 5854 5853 5852 5850 5849 5847 5845 5842 5840 5837 5835 5832 5829 5827 5824 5822 5819 5817 5815 5813
5832 5834 5835 5836 5837 5838 5839 5840 5842 5843 5844 5846 5847 5848 5849 5850 5851 5852 5853 5854 5855 5855 5856 5856 5856 5856 5855 5854 5853 5852 5851 5850 5848 5846 5844 5842 5840 5838 5835 5832 5830 5827 5824 5822 5819 5817 5815 5813 5811
5833 5834 5835 5836 5837 5838 5839 5839 5842 5842 5844 5845 5846 5847 5848 5849 5849 5850 5852 5852 5853 5854 5854 5854 5854 5854 5853 5852 5851 5850 5849 5847 5846 5844 5842 5840 5838 5836 5833 5830 5828 5825 5822 5820 5817 5815 5813 5811 5809
5832 5834 5836 5836 5837 5837 5838 5839 5841 5841 5842 5843 5844 5845 5846 5847 5848 5849 5850 5851 5852 5852 5852 5852 5852 5852 5851 5851 5850 5849 5847 5846 5844 5842 5841 5838 5836 5834 5831 5828 5826 5823 5820 5818 5815 5813 5811 5809 5807
5832 5833 5834 5835 5836 5836 5837 5838 5839 5839 5840 5841 5843 5844 5845 5846 5847 5848 5849 5849 5850 5850 5850 5851 5850 5850 5849 5848 5847 5846 5845 5844 5842 5840 5838 5836 5834 5832 5829 5826 5824 5821 5818 5816 5814 5811 5809 5807 5805
5833 5833 5834 5835 5835 5835 5836 5837 5839 5838 5839 5840 5841 5843 5844 5845 5846 5847 5847 5848 5848 5848 5849 5849 5848 5848 5847 5846 5845 5844 5843 5842 5840 5838 5836 5834 5832 5829 5827 5824 5821 5819 5816 5814 5812 5810 5807 5805 5804
5833 5833 5833 5834 5834 5835 5836 5839 5838 5838 5838 5839 5841 5842 5843 5844 5845 5845 5846 5847 5847 5847 5847 5847 5847 5846 5845 5844 5843 5842 5841 5839 5838 5836 5834 5832 5830 5827 5824 5822 5819 5816 5814 5811 5809 5807 5805 5803 5802
5832 5832 5833 5834 5834 5835 5836 5840 5837 5837 5838 5838 5840 5841 5842 5843 5843 5844 5844 5845 5845 5845 5846 5845 5845 5844 5843 5842 5841 5840 5838 5837 5835 5834 5832 5829 5827 5825 5822 5819 5817 5814 5811 5809 5807 5805 5803 5801 5800
Wind_Speed
8 7 6 6 6 6 5 4 3 2 2 2 3 3 3 3 3 3 3 3 3 3 3 2 2 2 2 1 1 1 1 1 1 2 2 3 4 5 5 6 6 7 7 7 8 8 9 9 9
9 8 7 7 7 7 6 4 3 4 3 3 3 3 3 3 2 3 3 3 4 3 3 2 1 1 2 1 1 1 1 2 2 3 3 4 4 5 5 6 6 7 7 8 8 9 9 9 9
10 9 9 9 9 8 7 5 4 3 4 4 3 3 3 3 3 3 3 4 4 4 3 2 1 1 1 1 1 1 1 2 2 3 4 4 5 5 6 6 7 7 8 8 9 9 10 10 10
11 11 10 10 10 9 8 6 4 3 3 2 3 4 4 3 3 3 4 4 3 3 3 2 1 1 1 1 1 1 1 2 2 3 3 4 5 5 6 6 7 7 8 8 9 10 10 10 10
12 11 11 11 10 9 8 7 5 4 3 3 4 4 4 4 4 3 4 4 4 4 3 2 2 2 1 1 1 0 1 2 2 3 3 4 4 5 6 6 7 8 8 9 9 10 10 10 11
12 12 12 12 11 10 9 8 6 6 5 4 4 4 3 4 4 4 4 4 4 4 4 3 2 2 2 1 0 0 1 2 2 3 4 4 5 5 6 7 8 8 8 9 9 9 10 10 11
13 12 12 12 12 10 10 9 8 6 5 5 4 3 3 4 3 4 4 4 5 4 4 4 3 2 1 0 1 1 2 2 3 3 4 5 5 6 7 7 8 9 9 9 10 10 10 11 11
13 12 12 12 12 11 10 8 7 7 6 6 5 4 3 3 4 5 5 5 5 4 3 3 3 2 1 0 1 1 2 3 3 4 4 5 6 6 7 8 9 9 10 10 10 11 11 11 11
13 13 12 12 12 12 10 9 7 8 7 6 6 5 4 4 4 4 5 5 5 4 4 3 2 2 1 1 1 2 2 3 3 4 5 6 6 7 8 9 9 10 10 10 11 11 11 11 12
13 13 13 13 13 12 11 9 9 9 8 7 7 6 5 5 4 4 5 6 5 5 4 3 2 2 1 1 2 3 3 3 4 5 6 6 7 8 8 9 9 10 11 11 11 12 12 12 12
13 13 13 12 11 10 9 8 8 9 9 7 7 6 5 5 5 5 4 5 5 5 4 3 3 2 2 2 2 2 3 4 5 5 6 7 7 8 8 9 10 10 11 12 12 12 12 12 12
12 12 13 11 9 9 7 7 7 7 8 8 6 6 5 5 6 6 5 4 5 4 4 3 3 3 3 2 2 3 3 4 5 5 6 7 8 9 9 10 10 11 12 12 12 12 12 12 12
11 12 12 11 9 9 8 8 7 7 7 7 7 6 6 5 6 5 6 5 4 4 4 3 3 3 3 2 3 3 3 4 5 6 7 8 9 9 10 10 11 12 12 12 12 12 12 12 12
11 11 10 10 9 8 8 7 7 7 8 8 7 7 7 6 6 6 6 6 5 4 4 4 3 3 3 3 3 3 4 5 6 7 8 9 9 10 10 11 12 12 13 13 13 13 13 13 13
11 11 10 10 9 8 7 7 7 8 8 8 8 7 7 7 6 6 6 6 5 5 4 4 4 3 3 3 3 3 5 6 6 7 9 10 10 10 11 12 13 13 13 14 14 13 13 13 13
10 11 11 10 9 8 8 8 8 8 8 8 8 7 7 7 6 6 6 6 5 5 4 4 4 3 3 3 3 4 5 6 7 8 9 10 11 11 12 13 13 14 14 14 14 14 13 13 13
10 9 10 9 8 8 8 8 8 9 9 8 7 6 6 6 6 6 6 6 5 5 5 4 3 3 3 3 4 5 6 7 8 9 10 10 11 12 13 14 14 14 15 15 15 14 14 13 13
8 9 9 9 8 8 8 8 8 9 9 9 8 6 6 5 5 6 6 6 5 5 5 5 4 3 4 4 5 6 7 8 9 10 10 11 11 13 14 14 14 15 15 15 15 14 14 13 13
8 7 8 8 8 9 8 8 9 9 9 9 8 7 6 5 5 6 6 5 5 5 4 4 4 4 4 5 6 7 8 8 9 10 10 11 12 13 14 14 15 15 15 15 15 15 14 13 13
8 8 9 9 9 9 9 9 9 10 9 9 8 7 6 5 5 5 5 5 5 4 4 4 4 4 5 5 6 7 7 8 9 10 11 12 13 14 14 15 15 15 15 15 15 14 13 13 12
8 8 8 9 10 9 9 8 9 9 9 9 8 7 7 6 5 5 6 5 4 4 4 4 4 5 5 6 7 7 8 9 10 11 11 12 13 14 15 15 15 15 15 15 14 14 13 12 11
8 8 8 8 8 9 8 9 9 9 8 8 7 7 6 6 5 6 6 5 5 4 4 5 5 5 6 6 7 7 8 9 10 11 12 13 14 15 15 15 15 15 15 15 14 13 12 11 10
7 8 8 7 7 8 9 9 10 9 8 7 6 6 6 6 6 6 6 5 4 5 5 4 5 6 6 7 7 8 9 10 11 12 12 13 14 15 15 15 15 14 14 14 14 13 12 12 10
7 8 7 7 8 7 8 8 10 9 7 7 7 6 6 6 6 6 6 5 4 4 5 5 5 5 5 6 7 8 9 10 11 11 12 13 14 14 15 15 15 14 14 14 13 13 12 11 10
7 8 7 7 8 8 8 7 8 7 7 6 6 6 5 5 6 7 6 6 5 4 5 5 5 5 6 7 7 8 9 10 11 11 12 13 13 14 14 14 14 14 14 13 13 13 12 11 10
6 7 7 6 7 7 8 8 7 6 6 6 6 6 5 5 6 6 6 5 5 5 5 5 5 6 7 7 8 8 9 9 10 10 11 12 13 13 13 14 14 14 14 13 13 12 12 11 10
7 7 7 6 6 6 7 7 6 5 5 5 6 7 6 5 6 6 6 6 5 5 5 5 5 6 7 7 7 8 9 9 9 10 11 12 12 13 13 14 14 14 13 13 12 12 12 11 10
7 7 7 6 6 6 6 6 5 4 3 4 6 7 6 6 6 6 6 6 5 5 5 5 6 7 7 8 8 8 9 9 10 10 12 12 13 13 14 14 14 14 13 13 12 12 12 11 10
7 7 7 7 6 6 6 6 5 4 3 4 5 5 6 6 5 5 6 5 5 5 5 6 7 7 8 9 8 9 9 10 10 11 11 12 13 14 14 14 14 14 13 12 12 12 12 11 10
7 6 6 6 6 6 5 5 4 3 3 4 4 4 4 5 5 5 5 5 5 6 6 7 7 8 9 9 9 9 10 11 11 11 12 12 13 14 14 14 14 14 13 12 12 12 12 11 10
Wind_Direction
265 262 261 261 262 259 262 270 228 211 198 188 178 186 172 165 175 177 179 179 164 154 148 150 156 163 157 149 171 225 232 236 269 290 297 303 306 305 304 302 300 297 294 291 290 287 284 283 280
260 259 256 252 251 250 249 248 227 210 214 176 172 182 171 161 177 186 185 182 167 156 153 160 170 175 180 175 190 231 245 257 273 287 296 301 306 305 304 303 302 299 296 293 290 288 285 282 280
255 254 252 250 248 249 250 244 243 221 192 177 173 179 170 167 176 184 185 181 162 158 160 160 158 162 177 177 195 223 245 266 276 283 292 301 306 307 308 308 308 306 302 298 294 291 289 285 281
252 251 250 251 247 251 248 243 253 216 187 182 178 170 159 155 167 167 177 166 155 154 155 142 135 150 153 164 163 190 247 272 280 286 294 301 304 307 310 311 310 308 305 302 298 294 292 287 283
248 248 248 251 246 246 247 240 245 233 204 197 182 183 167 161 158 163 168 166 160 150 148 143 144 139 121 110 124 148 296 291 292 302 308 310 311 311 311 312 312 311 309 305 299 295 293 289 284
247 246 245 244 242 239 236 228 227 226 208 194 185 185 169 157 166 174 168 165 157 149 152 154 151 146 131 111 123 320 318 311 310 311 313 316 317 316 314 311 311 312 310 307 302 298 295 290 286
244 243 241 241 239 234 235 229 220 217 214 204 195 184 173 165 165 168 164 157 156 155 154 159 162 160 148 54 314 328 330 325 318 311 315 318 319 319 317 314 312 310 308 305 302 298 295 293 289
241 240 238 238 234 232 233 225 211 206 205 193 192 182 173 167 164 160 155 155 159 164 167 168 170 173 190 254 305 315 316 320 321 320 321 320 319 318 316 315 314 312 309 306 302 300 296 293 290
238 236 233 234 232 228 234 225 225 224 209 195 192 181 173 167 162 156 154 158 164 167 172 171 183 191 211 264 314 317 316 322 330 328 324 321 320 319 319 318 316 314 313 309 305 302 298 293 289
233 233 231 232 232 231 227 223 223 218 215 208 204 188 178 175 169 163 160 161 163 162 165 176 194 215 234 275 307 315 316 324 330 327 324 324 322 321 320 318 316 315 314 312 309 305 300 294 288
228 229 229 227 225 227 224 219 216 211 203 204 206 196 191 184 180 174 169 169 168 165 171 185 203 223 236 263 289 300 313 323 325 323 323 323 322 320 318 316 314 315 314 312 311 307 302 298 290
222 226 228 222 224 221 228 228 221 216 196 198 199 196 191 183 182 182 179 181 182 180 188 203 217 229 236 257 281 295 314 325 324 321 323 322 321 320 320 318 315 314 313 312 311 308 303 299 292
218 222 223 220 221 218 225 227 224 220 204 198 198 190 190 187 189 189 188 188 190 197 203 211 220 238 257 272 289 300 312 319 319 321 325 325 323 321 319 317 316 315 314 314 313 310 305 299 293
208 212 217 216 213 212 216 216 214 212 203 200 195 198 200 194 190 190 191 194 198 204 210 220 226 239 260 281 293 301 310 317 319 323 326 325 323 321 320 319 319 318 317 316 314 311 306 300 294
206 212 211 211 209 210 209 212 211 209 204 200 195 195 199 196 192 195 196 202 207 217 227 231 236 248 264 281 299 306 313 319 321 325 326 325 325 324 323 321 321 321 319 317 315 312 307 300 294
209 206 206 202 201 205 207 206 204 200 201 200 200 198 196 197 198 200 204 211 215 223 232 232 239 252 266 283 302 309 316 319 322 326 326 326 327 326 326 324 322 322 321 320 317 314 309 302 295
202 200 197 192 194 198 196 199 200 200 198 198 200 203 198 196 200 203 209 216 226 233 234 241 251 270 281 287 305 311 316 319 323 326 325 325 325 326 327 326 325 324 322 320 317 314 310 304 297
192 187 184 182 187 194 192 194 199 202 200 200 202 199 200 203 214 218 211 216 228 236 236 245 260 282 289 294 307 313 318 321 319 322 322 323 324 326 327 327 326 324 322 320 317 314 310 304 299
184 179 180 180 185 187 190 193 196 199 200 201 200 201 201 206 217 220 207 216 227 232 237 249 260 276 291 299 304 310 317 319 318 319 322 323 325 326 327 326 326 325 324 322 320 316 310 306 300
179 175 179 183 182 182 189 196 190 193 193 197 195 198 196 197 199 199 203 209 218 224 233 248 261 273 283 292 299 309 316 318 320 320 320 321 324 327 327 327 327 327 326 325 324 320 315 310 304
174 173 181 186 181 183 187 187 183 184 186 186 185 189 195 198 198 200 201 202 205 217 232 250 260 268 279 290 298 306 313 317 319 322 322 321 323 325 326 327 327 326 326 327 327 325 321 315 308
175 177 179 184 185 183 184 179 175 178 178 178 182 190 196 201 203 203 206 210 212 225 243 257 267 274 281 289 296 304 311 315 318 321 323 324 326 326 327 328 326 326 327 327 326 325 323 318 312
170 170 171 177 171 172 178 182 176 173 173 179 180 190 197 200 201 203 209 211 218 236 249 259 270 280 285 292 297 304 310 313 317 320 322 324 326 328 330 331 329 327 328 328 327 325 324 321 313
165 165 169 173 173 170 168 171 172 171 175 185 185 186 197 202 205 209 212 213 225 240 248 257 269 280 291 297 301 307 312 316 319 322 324 325 327 329 330 330 330 328 329 330 330 328 326 324 317
175 178 180 180 176 169 171 169 164 168 177 188 190 189 196 200 202 204 208 213 228 243 253 262 271 280 289 297 303 309 313 317 320 323 325 327 328 329 331 333 332 330 330 330 331 331 329 327 324
185 194 191 189 178 171 176 175 166 172 184 187 185 187 191 196 200 204 212 221 238 250 262 268 274 282 291 298 303 307 310 314 319 322 324 328 330 330 333 334 334 332 331 330 330 329 330 329 325
184 191 192 186 179 181 181 180 184 187 197 194 197 197 195 200 207 216 226 229 240 254 264 273 282 290 298 303 305 307 312 314 318 323 326 328 330 331 333 336 336 334 331 331 331 330 330 329 325
183 181 192 200 195 186 175 173 177 174 194 199 195 196 199 205 214 224 232 235 243 252 262 275 287 295 301 305 308 312 315 317 321 325 328 329 330 331 333 335 335 334 331 330 330 330 329 327 325
183 188 200 206 203 188 171 164 165 168 176 181 189 192 200 204 212 221 226 230 242 256 267 278 286 293 297 302 305 310 315 319 321 324 327 328 328 329 331 332 333 333 332 329 327 326 327 326 325
201 207 208 211 208 196 187 170 180 166 166 171 183 194 206 212 224 235 234 238 251 261 268 280 289 293 297 301 304 309 314 316 317 320 324 326 327 328 327 329 331 332 331 328 325 324 324 324 320